Search your local weather  

 
Advertise Here

Hazardous Weather Conditions

No active alerts for DENVER, COLORADO

Current Conditions: DENVER, COLORADO

Mostly Cloudy


84.0 F

Last Updated on Jul 12 2020, 7:45 pm MDT
Humidity: 22%
Wind Speed: SW 4.6 mph
Barometer 30.04 in
Dewpoint: 41.0 F
Visibility: 10.00 mi
Precip: --
Heat Index: 81 F
Wind Chill: NA
Current conditions at:

Broomfield / Jeffco, CO (KBJC)

Lat: 39.90085 Lon: -105.10417

Local Radar Image active severe weather and emergency alerts image image weather storm and storm spotter reports image weather observation monitoring service image
Local
Radar
Active
Alerts
Storm Reports Weather
Monitoring

5 Day Forecast for DENVER, COLORADO (80202)

Sunday

Isolated T-storm

High 97 °F
Sunday
Night
Slight Chance of Showers
Low 67 °F
Monday

Chance of T-storms

High 95 °F
Monday
Night
Isolated T-storm

Low 62 °F
Tuesday

Chance of T-storms

High 82 °F
Tuesday
Night
Chance of Scattered T-storms
Low 61 °F
Wednesday

Chance of Scattered T-storms
High 89 °F
Wednesday
Night
Partly Cloudy

Low 62 °F
Thursday

Chance of T-storms

High 95 °F

Sign-up For Email & Text Message Weather Alert Notification Services


Advertise Here

Observation History for DENVER, COLORADO


Time Wind
(mph)
Vis
(mi)
Weather Precip (in) Temperature (F) Relative
Humidity
Wind
Chill
(F)
Heat
Index
(F)
Pressure
Air Dwpt altimeter
(in)
sea level
(mb)
7:45 pm MDT SW 4.6 10.00 Mostly Cloudy -- 84.0 41.0 22% NA 81 30.04 M
6:45 pm MDT N 0.0 10.00 Mostly Cloudy -- 84.0 39.2 20% NA 81 30.05 M
5:45 pm MDT S 10.4 10.00 Mostly Cloudy -- 88.0 41.0 19% NA 84 30.06 M
3:45 pm MDT S 19.6 G 25.3 10.00 Mostly Cloudy -- 86.0 37.4 18% NA 83 30.14 M
2:45 pm MDT W 11.5 G 25.3 10.00 Showers in Vicinity -- 90.0 32.0 13% NA 86 30.16 M
1:45 pm MDT NW 11.5 10.00 Showers in Vicinity -- 93.0 33.8 12% NA 89 30.12 M
12:55 pm MDT N 4.6 10.00 Mostly Cloudy -- 93.0 35.6 13% NA 89 30.12 M
11:47 am MDT NE 4.6 10.00 Mostly Cloudy -- 90.0 41.0 18% NA 86 30.13 M
10:47 am MDT E 4.6 10.00 Partly Cloudy -- 84.0 44.6 25% NA 82 30.15 M
9:47 am MDT NE 5.8 10.00 A Few Clouds -- 81.0 48.2 32% NA 80 30.16 M
8:48 am MDT N 5.8 10.00 A Few Clouds -- 77.0 48.2 36% NA NA 30.17 M
7:48 am MDT N 4.6 40.00 A Few Clouds -- 73.0 48.2 41% NA NA 30.17 M
6:54 am MDT N 9.2 10.00 Fair -- 70.0 44.6 40% NA NA 30.17 M
5:54 am MDT NE 4.6 10.00 Fair -- 68.0 37.4 33% NA NA 30.17 M
4:54 am MDT N 0.0 10.00 Fair -- 72.0 35.6 27% NA NA 30.15 M
3:54 am MDT SW 9.2 10.00 Fair -- 64.0 35.6 34% NA NA 30.14 M
2:54 am MDT SW 6.9 10.00 Fair -- 64.0 37.4 37% NA NA 30.16 M
1:54 am MDT W 6.9 10.00 Fair -- 68.0 39.2 35% NA NA 30.17 M
12:54 am MDT SW 4.6 10.00 Fair -- 70.0 41.0 35% NA NA 30.19 M
11:54 pm MDT S 3.5 10.00 Fair -- 77.0 44.6 32% NA NA 30.22 M
9:45 pm MDT E 4.6 10.00 Mostly Cloudy -- 82.0 41.0 23% NA 80 30.25 M
8:47 pm MDT NE 4.6 10.00 Mostly Cloudy -- 84.0 37.4 19% NA 81 30.23 M

Regional Weather Observation

Erie Municipal Airport, CO (KEIK)

Fair
86.0 F

Boulder Municipal Airport, CO (KBDU)

Fair
88.0 F

Fort Collins/Loveland - Northern Colorado Regional Airport, CO (KFNL)

Fair
87.0 F

Buckley Air Force Base Airport, CO (KBKF)

Partly Cloudy
82.0 F

Denver, Denver International Airport, CO (KDEN)

Mostly Cloudy
86.0 F

Denver - Centennial Airport, CO (KAPA)

Mostly Cloudy
84.0 F
Advertise Here

Advertise Here